Time,TemperatureF,DewpointF,PressureIn,WindDirection,WindDirectionDegrees,WindSpeedMPH,WindSpeedGustMPH,Humidity,HourlyPrecipIn,Conditions,Clouds,dailyrainin,SoftwareType,DateUTC
2013-09-30 00:12:00,61.0,47.0,-100.00,SSW,196,21.0,35.0,59,-99.99,,,-99.99,,2013-09-30 07:12:00,
2013-09-30 01:12:00,61.0,49.0,-100.00,SW,233,29.0,48.0,64,-99.99,,,-99.99,,2013-09-30 08:12:00,
2013-09-30 02:11:00,59.0,45.0,-100.00,WSW,248,22.0,37.0,59,-99.99,,,-99.99,,2013-09-30 09:11:00,
2013-09-30 03:13:00,54.0,38.0,-100.00,WSW,248,20.0,29.0,54,-99.99,,,-99.99,,2013-09-30 10:13:00,
2013-09-30 04:12:00,53.0,36.0,-100.00,WSW,239,15.0,27.0,52,-99.99,,,-99.99,,2013-09-30 11:12:00,
2013-09-30 05:12:00,52.0,37.0,-100.00,WSW,245,9.0,21.0,56,-99.99,,,-99.99,,2013-09-30 12:12:00,
2013-09-30 06:11:00,53.0,37.0,-100.00,SW,218,7.0,14.0,54,-99.99,,,-99.99,,2013-09-30 13:11:00,
2013-09-30 07:11:00,54.0,37.0,-100.00,South,182,12.0,20.0,52,-99.99,,,-99.99,,2013-09-30 14:11:00,
2013-09-30 08:11:00,56.0,37.0,-100.00,SSW,209,15.0,22.0,48,-99.99,,,-99.99,,2013-09-30 15:11:00,
2013-09-30 09:14:00,55.0,37.0,-100.00,SSW,212,20.0,30.0,50,-99.99,,,-99.99,,2013-09-30 16:14:00,
2013-09-30 10:13:00,56.0,38.0,-100.00,SW,230,17.0,27.0,50,-99.99,,,-99.99,,2013-09-30 17:13:00,
2013-09-30 11:12:00,61.0,38.0,-100.00,SW,232,22.0,31.0,42,-99.99,,,-99.99,,2013-09-30 18:12:00,
2013-09-30 12:12:00,63.0,38.0,-100.00,WSW,237,29.0,41.0,39,-99.99,,,-99.99,,2013-09-30 19:12:00,
2013-09-30 13:12:00,64.0,37.0,-100.00,WSW,240,27.0,41.0,36,-99.99,,,-99.99,,2013-09-30 20:12:00,
2013-09-30 14:11:00,65.0,37.0,-100.00,WSW,239,23.0,32.0,35,-99.99,,,-99.99,,2013-09-30 21:11:00,
2013-09-30 15:13:00,63.0,37.0,-100.00,WSW,246,27.0,38.0,37,-99.99,,,-99.99,,2013-09-30 22:13:00,
2013-09-30 16:12:00,66.0,38.0,-100.00,WSW,241,24.0,40.0,35,-99.99,,,-99.99,,2013-09-30 23:12:00,
2013-09-30 17:12:00,65.0,37.0,-100.00,WSW,248,23.0,35.0,35,-99.99,,,-99.99,,2013-10-01 00:12:00,
2013-09-30 18:12:00,63.0,38.0,-100.00,WSW,242,24.0,36.0,39,-99.99,,,-99.99,,2013-10-01 01:12:00,
2013-09-30 19:12:00,61.0,38.0,-100.00,SW,234,18.0,29.0,42,-99.99,,,-99.99,,2013-10-01 02:12:00,
2013-09-30 20:12:00,57.0,39.0,-100.00,SW,229,15.0,23.0,50,-99.99,,,-99.99,,2013-10-01 03:12:00,
2013-09-30 21:14:00,56.0,39.0,-100.00,SW,226,17.0,25.0,52,-99.99,,,-99.99,,2013-10-01 04:14:00,